TimeEDT,TemperatureF,Dew PointF,Humidity,Sea Level PressureIn,VisibilityMPH,Wind Direction,Wind SpeedMPH,Gust SpeedMPH,PrecipitationIn,Events,Conditions,WindDirDegrees,DateUTC
12:56 AM,43.0,36.0,76,30.32,-9999.0,Calm,Calm,-,N/A,,Unknown,0,2013-10-10 04:56:00
1:56 AM,48.0,36.0,63,30.30,-9999.0,Calm,Calm,-,N/A,,Unknown,0,2013-10-10 05:56:00
2:56 AM,43.0,37.0,80,30.31,-9999.0,Calm,Calm,-,N/A,,Unknown,0,2013-10-10 06:56:00
3:56 AM,44.1,36.0,73,30.30,-9999.0,Calm,Calm,-,N/A,,Unknown,0,2013-10-10 07:56:00
4:56 AM,43.0,36.0,76,30.30,-9999.0,NW,3.5,-,N/A,,Unknown,310,2013-10-10 08:56:00
5:56 AM,41.0,36.0,82,30.31,-9999.0,Calm,Calm,-,N/A,,Unknown,0,2013-10-10 09:56:00
6:56 AM,43.0,37.0,80,30.31,-9999.0,NNE,3.5,-,N/A,,Unknown,20,2013-10-10 10:56:00
7:56 AM,48.0,39.0,71,30.31,-9999.0,Calm,Calm,-,N/A,,Unknown,0,2013-10-10 11:56:00
8:56 AM,53.1,37.9,57,30.30,-9999.0,Calm,Calm,-,N/A,,Unknown,0,2013-10-10 12:56:00
9:56 AM,57.9,39.9,51,30.29,-9999.0,Variable,4.6,-,N/A,,Unknown,0,2013-10-10 13:56:00
10:56 AM,61.0,37.0,41,30.29,-9999.0,Variable,4.6,-,N/A,,Unknown,0,2013-10-10 14:56:00
11:56 AM,64.9,36.0,34,30.27,-9999.0,Variable,4.6,-,N/A,,Unknown,0,2013-10-10 15:56:00
12:56 PM,66.9,33.1,28,30.25,-9999.0,Variable,3.5,-,N/A,,Unknown,0,2013-10-10 16:56:00
1:56 PM,68.0,32.0,26,30.24,-9999.0,Calm,Calm,-,N/A,,Unknown,0,2013-10-10 17:56:00
2:56 PM,68.0,30.0,24,30.23,-9999.0,Calm,Calm,-,N/A,,Unknown,0,2013-10-10 18:56:00
3:56 PM,69.1,27.0,21,30.22,-9999.0,Calm,Calm,-,N/A,,Unknown,0,2013-10-10 19:56:00
4:56 PM,66.0,33.1,29,30.21,-9999.0,Calm,Calm,-,N/A,,Unknown,0,2013-10-10 20:56:00
5:56 PM,60.1,37.9,44,30.22,-9999.0,ESE,3.5,-,N/A,,Unknown,120,2013-10-10 21:56:00
6:56 PM,57.0,37.0,47,30.22,-9999.0,Calm,Calm,-,N/A,,Unknown,0,2013-10-10 22:56:00
7:56 PM,53.1,37.0,55,30.22,-9999.0,Calm,Calm,-,N/A,,Unknown,0,2013-10-10 23:56:00
8:56 PM,54.0,36.0,51,30.21,-9999.0,North,3.5,-,N/A,,Unknown,350,2013-10-11 00:56:00
9:56 PM,53.1,35.1,50,30.20,-9999.0,Calm,Calm,-,N/A,,Unknown,0,2013-10-11 01:56:00
10:56 PM,52.0,34.0,50,30.19,-9999.0,North,4.6,-,N/A,,Unknown,10,2013-10-11 02:56:00
11:56 PM,53.1,35.1,50,30.18,-9999.0,NE,3.5,-,N/A,,Unknown,40,2013-10-11 03:56:00